Weather History for Big Bear City, CA

Change the Weather History Date:

Sunday, January 19, 2014

  Actual Average (KBUO) Record (KBUO)
Temperature  
Mean Temperature 37 °F -  
Max Temperature 55 °F 58 °F 111 °F (1997)
Min Temperature 19 °F 41 °F 41 °F (2001)
Degree Days  
Heating Degree Days 28    
Moisture  
Dew Point 5 °F    
Average Humidity 35    
Maximum Humidity 54    
Minimum Humidity 13    
Precipitation  
Precipitation 0.00 in - - ()
Sea Level Pressure  
Sea Level Pressure 30.30 in    
Wind  
Wind Speed 1 mph (WSW)    
Max Wind Speed 9 mph    
Max Gust Speed -    
Visibility 10 miles    
Events      
Averages and records for this station are not official NWS values.
T = Trace of Precipitation, MM = Missing Value Source: NWS Daily Summary

Daily Weather History Graph

Daily Weather History Graph

Search for Another Location

Airport:

Trip Planner

Search our weather history database for the weather conditions in past years. The results will help you decide how hot, cold, wet, or windy it might be!

Date:

Astronomy

Jan. 19, 2014 Rise Set
Actual Time 6:52 AM PST 5:04 PM PST
Civil Twilight 6:24 AM PST 5:31 PM PST
Nautical Twilight 5:54 AM PST 6:02 PM PST
Astronomical Twilight 5:24 AM PST 6:32 PM PST
Moon 8:35 PM PST (1/19) 8:34 AM PST (1/19)
Length of Visible Light 11h 06m
Length of Day
10h 12m
Waning Gibbous, 89% of the Moon is Illuminated
Jan 19
Waning Gibbous
Jan 23
Last Quarter
Jan 30
New
Feb 6
First Quarter
Feb 14
Full

Hourly Weather History & Observations

Time (PST) Temp. Windchill Dew Point Humidity Pressure Visibility Wind Dir Wind Speed Gust Speed Precip Events Conditions
12:15 AM 23.0 °F - 5.0 °F 46% 30.30 in 10.0 mi Calm Calm - N/A   Clear
12:35 AM 23.0 °F - 3.2 °F 43% 30.30 in 10.0 mi Calm Calm - N/A   Clear
12:55 AM 23.0 °F - 3.2 °F 43% 30.30 in 10.0 mi Calm Calm - N/A   Clear
1:15 AM 21.2 °F - 5.0 °F 50% 30.30 in 10.0 mi Calm Calm - N/A   Clear
1:35 AM 21.2 °F - 5.0 °F 50% 30.30 in 10.0 mi Calm Calm - N/A   Clear
1:55 AM 21.2 °F - 5.0 °F 50% 30.30 in 10.0 mi Calm Calm - N/A   Clear
2:15 AM 21.2 °F - 5.0 °F 50% 30.30 in 10.0 mi Calm Calm - N/A   Clear
2:35 AM 21.2 °F - 5.0 °F 50% 30.30 in 10.0 mi Calm Calm - N/A   Clear
2:55 AM 21.2 °F - 5.0 °F 50% 30.30 in 10.0 mi Calm Calm - N/A   Clear
3:15 AM 21.2 °F - 5.0 °F 50% 30.30 in 10.0 mi Calm Calm - N/A   Clear
3:35 AM 21.2 °F - 5.0 °F 50% 30.30 in 10.0 mi Calm Calm - N/A   Clear
3:55 AM 21.2 °F - 5.0 °F 50% 30.30 in 10.0 mi Calm Calm - N/A   Clear
4:15 AM 21.2 °F - 5.0 °F 50% 30.29 in 10.0 mi Calm Calm - N/A   Clear
4:35 AM 21.2 °F - 5.0 °F 50% 30.30 in 10.0 mi Calm Calm - N/A   Clear
4:55 AM 21.2 °F - 5.0 °F 50% 30.30 in 10.0 mi Calm Calm - N/A   Clear
5:15 AM 21.2 °F - 5.0 °F 50% 30.30 in 10.0 mi Calm Calm - N/A   Clear
5:35 AM 21.2 °F - 5.0 °F 50% 30.30 in 10.0 mi Calm Calm - N/A   Clear
5:55 AM 21.2 °F - 5.0 °F 50% 30.30 in 10.0 mi Calm Calm - N/A   Clear
6:15 AM 19.4 °F - 5.0 °F 54% 30.31 in 10.0 mi Calm Calm - N/A   Clear
6:35 AM 19.4 °F - 5.0 °F 54% 30.31 in 10.0 mi Calm Calm - N/A   Clear
6:55 AM 19.4 °F - 5.0 °F 54% 30.31 in 10.0 mi Calm Calm - N/A   Clear
7:15 AM 19.4 °F - 5.0 °F 54% 30.31 in 10.0 mi Calm Calm - N/A   Clear
7:35 AM 21.2 °F - 6.8 °F 54% 30.31 in 10.0 mi Calm Calm - N/A   Clear
7:55 AM 23.0 °F - 8.6 °F 54% 30.32 in 10.0 mi Calm Calm - N/A   Clear
8:15 AM 26.6 °F - 8.6 °F 47% 30.32 in 10.0 mi Calm Calm - N/A   Clear
8:35 AM 32.0 °F - 10.4 °F 41% 30.33 in 10.0 mi Calm Calm - N/A   Clear
8:55 AM 33.8 °F - 10.4 °F 38% 30.33 in 10.0 mi Calm Calm - N/A   Clear
9:15 AM 37.4 °F 34.9 °F 8.6 °F 30% 30.33 in 10.0 mi West 3.5 mph - N/A   Clear
9:35 AM 42.8 °F - 10.4 °F 27% 30.33 in 10.0 mi Calm Calm - N/A   Clear
9:55 AM 44.6 °F - 6.8 °F 21% 30.33 in 10.0 mi Calm Calm - N/A   Clear
10:15 AM 50.0 °F - 5.0 °F 16% 30.33 in 10.0 mi Calm Calm - N/A   Clear
10:35 AM 51.8 °F - 3.2 °F 14% 30.32 in 10.0 mi Calm Calm - N/A   Clear
10:55 AM 53.6 °F - 3.2 °F 13% 30.31 in 10.0 mi West 6.9 mph - N/A   Clear
11:15 AM 53.6 °F - 3.2 °F 13% 30.31 in 10.0 mi West 5.8 mph - N/A   Clear
11:35 AM 55.4 °F - 5.0 °F 13% 30.30 in 10.0 mi West 5.8 mph - N/A   Clear
11:55 AM 55.4 °F - 5.0 °F 13% 30.29 in 10.0 mi West 9.2 mph - N/A   Clear
12:15 PM 55.4 °F - 5.0 °F 13% 30.28 in 10.0 mi WSW 6.9 mph - N/A   Clear
12:35 PM 55.4 °F - 6.8 °F 14% 30.27 in 10.0 mi West 9.2 mph - N/A   Clear
12:55 PM 55.4 °F - 6.8 °F 14% 30.27 in 10.0 mi WSW 8.1 mph - N/A   Clear
1:15 PM 55.4 °F - 5.0 °F 13% 30.26 in 10.0 mi West 9.2 mph - N/A   Clear
1:35 PM 53.6 °F - 5.0 °F 14% 30.26 in 10.0 mi West 9.2 mph - N/A   Clear
1:55 PM 53.6 °F - 6.8 °F 15% 30.26 in 10.0 mi West 9.2 mph - N/A   Clear
2:15 PM 53.6 °F - 6.8 °F 15% 30.26 in 10.0 mi West 9.2 mph - N/A   Clear
2:35 PM 55.4 °F - 5.0 °F 13% 30.26 in 10.0 mi WSW 8.1 mph - N/A   Clear
2:55 PM 53.6 °F - 5.0 °F 14% 30.26 in 10.0 mi South 4.6 mph - N/A   Clear
3:15 PM 53.6 °F - 3.2 °F 13% 30.26 in 10.0 mi East 3.5 mph - N/A   Clear
3:35 PM 53.6 °F - 3.2 °F 13% 30.25 in 10.0 mi NE 3.5 mph - N/A   Clear
3:55 PM 53.6 °F - 3.2 °F 13% 30.25 in 10.0 mi East 6.9 mph - N/A   Clear
4:15 PM 51.8 °F - 3.2 °F 14% 30.26 in 10.0 mi ESE 3.5 mph - N/A   Clear
4:55 PM 46.4 °F - 5.0 °F 18% 30.26 in 10.0 mi Calm Calm - N/A   Clear
5:15 PM 42.8 °F - 5.0 °F 21% 30.27 in 10.0 mi Calm Calm - N/A   Clear
5:35 PM 39.2 °F - 5.0 °F 24% 30.27 in 10.0 mi Calm Calm - N/A   Clear
5:55 PM 35.6 °F - 5.0 °F 28% 30.28 in 10.0 mi Calm Calm - N/A   Clear
6:15 PM 33.8 °F - 5.0 °F 30% 30.28 in 10.0 mi Calm Calm - N/A   Clear
6:35 PM 32.0 °F - 3.2 °F 30% 30.29 in 10.0 mi Calm Calm - N/A   Clear
6:55 PM 32.0 °F - 3.2 °F 30% 30.30 in 10.0 mi Calm Calm - N/A   Clear
7:15 PM 30.2 °F - 5.0 °F 34% 30.30 in 10.0 mi Calm Calm - N/A   Clear
7:35 PM 28.4 °F - 5.0 °F 37% 30.30 in 10.0 mi Calm Calm - N/A   Clear
7:55 PM 28.4 °F - 5.0 °F 37% 30.30 in 10.0 mi Calm Calm - N/A   Clear
8:15 PM 28.4 °F - 5.0 °F 37% 30.30 in 10.0 mi Calm Calm - N/A   Clear
8:35 PM 26.6 °F - 5.0 °F 40% 30.30 in 10.0 mi Calm Calm - N/A   Clear
8:55 PM 26.6 °F - 5.0 °F 40% 30.30 in 7.0 mi Calm Calm - N/A   Clear
9:15 PM 26.6 °F - 5.0 °F 40% 30.30 in 10.0 mi Calm Calm - N/A   Clear
9:35 PM 26.6 °F - 5.0 °F 40% 30.31 in 10.0 mi Calm Calm - N/A   Clear
9:55 PM 26.6 °F - 5.0 °F 40% 30.31 in 10.0 mi Calm Calm - N/A   Clear
10:15 PM 26.6 °F - 5.0 °F 40% 30.32 in 10.0 mi Calm Calm - N/A   Clear
10:35 PM 24.8 °F - 3.2 °F 40% 30.31 in 10.0 mi Calm Calm - N/A   Clear
10:55 PM 24.8 °F - 5.0 °F 43% 30.31 in 10.0 mi Calm Calm - N/A   Clear
11:15 PM 23.0 °F - 5.0 °F 46% 30.31 in 10.0 mi Calm Calm - N/A   Clear
11:35 PM 23.0 °F - 3.2 °F 43% 30.31 in 10.0 mi Calm Calm - N/A   Clear
11:55 PM 23.0 °F - 3.2 °F 43% 30.31 in 10.0 mi Calm Calm - N/A   Clear